Location: Skalnate Pleso
(49.1889°N, 20.2450°E)
Time: 20:50:06
(UTC+01:00)

Meteor 2-20 Rocket - Pass Details

Date: 19 November 2019
Orbit: 941 x 958 km, 82.5° (Epoch: 05 December)

Event Time Altitude Azimuth Distance (km) Brightness Sun altitude
Rises 04:28:45 0° 347° (NNW) 3,653 7.4 -23.5°
Reaches altitude 10° 04:31:16 10° 345° (NNW) 2,703 6.6 -23.1°
Maximum altitude 04:37:23 64° 265° (W) 1,056 4.4 -22.1°
Drops below altitude 10° 04:43:26 10° 186° (S) 2,682 6.8 -21.1°
Sets 04:45:56 0° 183° (S) 3,622 7.5 -20.7°
